TimeCDT,TemperatureF,Dew PointF,Humidity,Sea Level PressureIn,VisibilityMPH,Wind Direction,Wind SpeedMPH,Gust SpeedMPH,PrecipitationIn,Events,Conditions,WindDirDegrees,DateUTC
12:15 AM,41.7,22.1,46,30.36,10.0,North,5.8,-,N/A,,Mostly Cloudy,10,2012-10-12 05:15:00
12:35 AM,40.5,22.1,48,30.37,10.0,NNE,5.8,-,N/A,,Mostly Cloudy,20,2012-10-12 05:35:00
12:55 AM,38.8,22.1,51,30.37,10.0,NNE,4.6,-,N/A,,Clear,20,2012-10-12 05:55:00
1:15 AM,38.7,22.1,51,30.38,10.0,North,8.1,-,N/A,,Clear,10,2012-10-12 06:15:00
1:35 AM,38.3,21.9,52,30.38,10.0,North,5.8,-,N/A,,Clear,10,2012-10-12 06:35:00
1:55 AM,37.0,21.7,54,30.38,10.0,North,5.8,-,N/A,,Clear,10,2012-10-12 06:55:00
2:15 AM,36.7,21.9,55,30.38,10.0,North,5.8,-,N/A,,Clear,10,2012-10-12 07:15:00
2:35 AM,35.1,21.9,59,30.38,10.0,North,4.6,-,N/A,,Clear,10,2012-10-12 07:35:00
3:15 AM,34.7,21.7,59,30.38,10.0,NNE,6.9,-,N/A,,Clear,20,2012-10-12 08:15:00
3:35 AM,35.2,21.0,56,30.37,10.0,NNE,6.9,-,N/A,,Clear,20,2012-10-12 08:35:00
3:55 AM,34.0,20.5,58,30.37,10.0,NNE,5.8,-,N/A,,Clear,30,2012-10-12 08:55:00
4:15 AM,33.8,21.0,60,30.37,10.0,NNE,6.9,-,N/A,,Clear,30,2012-10-12 09:15:00
4:35 AM,34.3,20.8,58,30.38,10.0,NE,5.8,-,N/A,,Clear,40,2012-10-12 09:35:00
4:55 AM,33.3,20.8,60,30.38,10.0,NE,5.8,-,N/A,,Clear,50,2012-10-12 09:55:00
5:15 AM,34.7,21.2,58,30.37,10.0,NE,6.9,-,N/A,,Clear,50,2012-10-12 10:15:00
5:55 AM,36.5,21.2,54,30.37,10.0,NE,9.2,-,N/A,,Clear,50,2012-10-12 10:55:00
6:15 AM,36.1,21.2,55,30.38,10.0,ENE,8.1,-,N/A,,Clear,60,2012-10-12 11:15:00
6:35 AM,36.0,21.4,55,30.38,10.0,NE,8.1,-,N/A,,Clear,50,2012-10-12 11:35:00
6:55 AM,35.6,21.7,57,30.38,10.0,ENE,6.9,-,N/A,,Clear,60,2012-10-12 11:55:00
7:15 AM,35.2,21.9,58,30.39,10.0,ENE,6.9,-,N/A,,Clear,60,2012-10-12 12:15:00
7:35 AM,34.9,21.9,59,30.40,10.0,ENE,4.6,-,N/A,,Clear,60,2012-10-12 12:35:00
7:55 AM,35.6,21.9,58,30.40,10.0,East,5.8,-,N/A,,Clear,80,2012-10-12 12:55:00
8:15 AM,37.4,22.1,54,30.40,10.0,East,8.1,-,N/A,,Clear,80,2012-10-12 13:15:00
8:35 AM,38.5,21.9,51,30.40,10.0,East,11.5,-,N/A,,Clear,80,2012-10-12 13:35:00
9:15 AM,41.7,21.9,45,30.40,10.0,East,15.0,-,N/A,,Clear,100,2012-10-12 14:15:00
9:35 AM,43.9,21.2,41,30.40,10.0,East,17.3,23.0,N/A,,Clear,100,2012-10-12 14:35:00
9:55 AM,46.2,20.1,35,30.39,10.0,ESE,17.3,21.9,N/A,,Clear,110,2012-10-12 14:55:00
10:15 AM,47.7,18.7,32,30.38,10.0,ESE,20.7,25.3,N/A,,Clear,120,2012-10-12 15:15:00
10:35 AM,48.6,18.3,30,30.38,10.0,ESE,16.1,-,N/A,,Clear,120,2012-10-12 15:35:00
10:55 AM,50.2,17.6,28,30.38,10.0,ESE,19.6,26.5,N/A,,Clear,110,2012-10-12 15:55:00
11:15 AM,50.7,17.1,26,30.38,10.0,ESE,13.8,25.3,N/A,,Clear,120,2012-10-12 16:15:00
11:35 AM,51.6,15.8,24,30.37,10.0,ESE,16.1,20.7,N/A,,Clear,120,2012-10-12 16:35:00
11:55 AM,53.1,13.6,21,30.37,10.0,ESE,15.0,23.0,N/A,,Clear,110,2012-10-12 16:55:00
12:15 PM,53.6,13.8,21,30.36,10.0,ESE,16.1,-,N/A,,Clear,120,2012-10-12 17:15:00
12:35 PM,54.9,12.6,19,30.35,10.0,SE,13.8,20.7,N/A,,Clear,130,2012-10-12 17:35:00
12:55 PM,56.1,11.5,17,30.34,10.0,SE,18.4,-,N/A,,Clear,130,2012-10-12 17:55:00
1:35 PM,57.0,12.6,17,30.30,10.0,ESE,16.1,-,N/A,,Clear,120,2012-10-12 18:35:00
1:55 PM,58.3,10.9,15,30.29,10.0,SE,16.1,-,N/A,,Clear,130,2012-10-12 18:55:00
2:15 PM,59.0,9.5,14,30.28,10.0,SE,15.0,24.2,N/A,,Clear,140,2012-10-12 19:15:00
2:35 PM,60.1,9.3,13,30.25,10.0,ESE,17.3,-,N/A,,Unknown,120,2012-10-12 19:35:00
2:55 PM,59.9,9.0,13,30.24,10.0,ESE,15.0,19.6,N/A,,Unknown,120,2012-10-12 19:55:00
3:15 PM,61.0,8.8,13,30.23,10.0,ESE,15.0,19.6,N/A,,Unknown,120,2012-10-12 20:15:00
3:35 PM,61.7,8.6,12,30.22,10.0,SE,13.8,-,N/A,,Clear,130,2012-10-12 20:35:00
3:55 PM,62.6,8.4,12,30.23,10.0,SE,15.0,18.4,N/A,,Scattered Clouds,140,2012-10-12 20:55:00
4:15 PM,62.1,9.7,13,30.21,10.0,SE,13.8,19.6,N/A,,Mostly Cloudy,140,2012-10-12 21:15:00
4:35 PM,61.3,10.4,13,30.19,10.0,SE,12.7,19.6,N/A,,Scattered Clouds,130,2012-10-12 21:35:00
5:15 PM,61.3,12.4,15,30.18,10.0,SE,12.7,18.4,N/A,,Scattered Clouds,130,2012-10-12 22:15:00
5:55 PM,60.3,13.6,16,30.14,10.0,ESE,11.5,-,N/A,,Overcast,110,2012-10-12 22:55:00
6:15 PM,60.3,14.5,17,30.14,10.0,ESE,15.0,-,N/A,,Overcast,120,2012-10-12 23:15:00
6:35 PM,60.4,16.2,18,30.13,10.0,SE,11.5,-,N/A,,Overcast,130,2012-10-12 23:35:00
6:55 PM,55.2,33.8,44,30.13,10.0,SE,10.4,-,0.01,Rain,Light Rain,130,2012-10-12 23:55:00
7:15 PM,55.4,32.4,42,30.12,10.0,SSE,12.7,-,N/A,,Overcast,150,2012-10-13 00:15:00
8:58 PM,51.8,44.6,76,30.12,10.0,SE,8.1,-,N/A,,Overcast,140,2012-10-13 01:58:00
9:38 PM,51.8,42.8,71,30.09,10.0,ESE,12.7,-,N/A,,Overcast,120,2012-10-13 02:38:00
9:59 PM,51.8,44.6,76,30.09,10.0,SE,10.4,-,N/A,,Overcast,130,2012-10-13 02:59:00
10:19 PM,51.8,44.6,76,30.09,10.0,SE,10.4,-,N/A,,Overcast,130,2012-10-13 03:19:00
10:39 PM,51.8,44.6,76,30.08,10.0,SSE,9.2,-,N/A,,Overcast,150,2012-10-13 03:39:00
11:19 PM,51.8,44.6,76,30.05,10.0,SSE,12.7,-,N/A,,Overcast,150,2012-10-13 04:19:00
11:39 PM,51.8,46.4,82,30.05,10.0,SSE,11.5,-,N/A,,Overcast,150,2012-10-13 04:39:00